This is the latest recevied weather packets stored in our database for station/object KB5SMY. If no packets are shown the sender has not sent any weather packets the latest 10 day(s).
| Time | Temp. | Humidity | Pressure | Rain* | Wind** | Luminosity | Snow |
|---|---|---|---|---|---|---|---|
| 1777576804 | 16.67° C | 88% | 1013.4 hPa | 0 mm | - | 63 W/m² | - |
| 1777576331 | 16.67° C | 88% | 1013.4 hPa | 0 mm | - | 60 W/m² | - |
| 1777574404 | 16.67° C | 89% | 1012.5 hPa | 0 mm | - | 111 W/m² | - |
| 1777570205 | 16.11° C | 90% | 1013.8 hPa | 0 mm | - | 104 W/m² | - |
| 1777569731 | 16.11° C | 91% | 1013.5 hPa | 0 mm | - | 204 W/m² | - |
| 1777569004 | 16.11° C | 91% | 1013.4 hPa | 0 mm | - | 223 W/m² | - |
| 1777566604 | 15.56° C | 91% | 1014 hPa | 0.25 mm | - | 77 W/m² | - |
| 1777563604 | 15° C | 89% | 1015.6 hPa | 0 mm | - | 33 W/m² | - |
| 1777558804 | 16.11° C | 84% | 1014.6 hPa | 0 mm | - | 21 W/m² | - |
| 1777557605 | 16.11° C | 84% | 1014.7 hPa | 0 mm | - | 39 W/m² | - |
| 1777557132 | 16.11° C | 85% | 1014.3 hPa | 0 mm | - | 39 W/m² | - |
| 1777555932 | 16.11° C | 85% | 1014.4 hPa | 0 mm | - | 23 W/m² | - |
| 1777554604 | 16.11° C | 85% | 1013.9 hPa | 0 mm | - | 40 W/m² | - |
| 1777549804 | 15.56° C | 84% | 1013.5 hPa | 0 mm | - | 0 W/m² | - |
| 1777548004 | 15.56° C | 83% | 1013.2 hPa | 0 mm | - | 0 W/m² | - |
| 1777546804 | 15.56° C | 82% | 1013.1 hPa | 0 mm | - | 0 W/m² | - |
| 1777540204 | 16.67° C | 83% | 1013.4 hPa | 0 mm | - | 0 W/m² | - |
| 1777537804 | 16.67° C | 83% | 1013.5 hPa | 0 mm | - | 0 W/m² | - |
| 1777537204 | 16.67° C | 82% | 1013.6 hPa | 0 mm | - | 0 W/m² | - |
| 1777530604 | 16.11° C | 83% | 1014.3 hPa | 0 mm | - | 0 W/m² | - |
| 1777521132 | 16.11° C | 82% | 1015.3 hPa | 0 mm | - | 0 W/m² | - |
| 1777518605 | 15.56° C | 82% | 1015.1 hPa | 0 mm | - | 0 W/m² | - |
| 1777515005 | 15.56° C | 81% | 1014.5 hPa | 0 mm | - | 0 W/m² | - |
| 1777514405 | 15.56° C | 81% | 1014.4 hPa | 0 mm | - | 0 W/m² | - |
| 1777510931 | 16.11° C | 79% | 1013.4 hPa | 0 mm | - | 0 W/m² | - |
* Rain latest hour (hover to see other rain measurements)
** Current wind speed in m/s (hover to see current wind gust speed)